GFSNW_sfc_rhum_096.txt.gz
RH
67 67 67 66 70 65 69 97 99 57 69 93 58 66 42 39 23 16 20 24 28 31 32 29 28 23 41 22 23 24 31 39 46 37 19 21 26 19 20 31 32 30 36 35
68 69 71 68 69 62 84 95 64 70 76 93 67 48 38 30 26 21 20 24 22 21 25 35 26 22 28 28 28 44 40 36 44 34 25 25 30 27 21 22 26 35 55 42
67 69 72 70 70 63 89 99 93 62 95 61 58 79 51 35 24 25 24 21 20 22 28 25 31 20 23 34 30 58 49 30 34 46 35 26 34 29 29 32 48 36 36 28
71 70 68 71 73 72 87 100 80 58 96 81 59 48 61 52 37 26 23 24 25 25 36 29 28 22 19 21 46 33 39 36 27 23 21 20 21 27 28 32 34 42 34 28
67 71 73 72 75 70 98 99 70 43 48 48 69 58 48 45 49 32 36 37 29 23 27 26 28 20 24 27 23 33 36 48 40 37 24 20 25 22 22 21 20 21 25 28
66 66 68 71 75 78 98 80 56 75 67 88 71 59 50 37 33 39 43 34 43 40 29 29 21 30 35 38 42 46 48 51 50 53 34 27 41 27 20 17 15 17 23 22
70 71 72 74 75 75 79 74 57 85 80 57 62 49 44 49 44 49 42 32 50 46 42 38 36 35 36 35 37 37 62 58 59 65 53 64 32 15 15 20 19 17 28 18
71 74 76 75 77 74 81 67 90 84 84 48 40 39 44 50 46 46 46 44 40 56 47 65 54 54 50 46 37 36 37 52 79 68 58 37 27 22 26 42 39 40 42 40
74 76 77 75 74 74 81 76 86 92 94 62 37 48 47 49 50 48 39 37 36 56 67 83 71 70 50 50 46 37 37 50 75 71 71 64 40 26 22 28 51 42 40 43
76 78 81 81 78 76 84 63 76 92 94 54 49 57 51 34 41 60 53 48 54 52 87 79 78 60 61 80 56 63 65 74 83 80 79 54 34 26 27 49 70 43 41 44
80 80 81 83 83 81 88 78 74 92 79 56 46 41 44 38 40 53 45 67 63 95 91 70 62 66 54 54 66 52 62 85 89 76 77 78 26 27 47 47 38 33 35 45
82 82 83 83 85 85 86 96 78 78 96 58 47 41 38 35 32 51 66 81 99 62 63 57 60 70 75 48 52 44 80 51 60 53 54 40 35 42 38 30 29 30 38 33
83 83 84 83 83 84 87 96 87 92 98 88 68 56 42 38 38 41 95 76 92 87 89 92 86 92 77 73 52 42 53 40 68 80 49 40 42 40 38 23 25 28 32 38
84 84 85 84 86 91 91 98 94 92 98 94 62 39 49 37 36 39 45 59 79 87 86 99 100 92 57 84 63 64 44 58 55 64 32 32 29 33 36 33 30 29 39 39
85 85 86 87 87 88 92 97 95 80 77 80 63 44 32 36 40 42 42 48 57 73 95 98 92 68 68 60 60 59 40 45 59 63 42 42 40 32 30 30 32 43 45 46
86 86 86 81 84 88 97 100 98 87 70 97 100 60 59 46 40 48 53 53 67 82 97 97 79 54 76 83 74 42 47 35 37 46 29 31 31 26 30 34 38 46 50 60
86 87 86 81 86 96 98 97 83 89 88 100 95 72 73 57 49 53 63 61 84 86 98 97 83 70 78 89 74 48 61 57 37 28 34 38 41 41 34 36 43 49 51 62
86 87 87 86 90 91 96 93 85 86 98 98 99 81 86 82 97 94 77 94 96 99 98 90 79 69 87 89 47 38 34 38 38 48 44 43 39 39 41 40 40 46 48 59
86 87 87 93 97 99 86 87 88 90 95 98 100 86 86 95 98 97 93 97 100 97 100 98 93 87 77 57 55 62 62 62 59 52 48 45 51 48 48 50 52 55 52 58
86 92 100 100 98 89 91 99 100 99 98 98 98 74 99 95 99 100 100 99 100 100 95 70 89 72 51 77 67 65 62 57 55 63 65 63 62 62 61 59 57 63 56 66
96 100 100 92 81 92 98 100 100 100 99 78 69 72 96 93 97 100 97 98 96 91 86 85 84 79 85 64 66 63 60 58 57 58 59 60 68 72 74 75 78 77 75 79
80 92 88 87 95 100 100 97 94 82 66 64 75 77 76 88 81 98 95 89 100 89 78 93 82 95 83 69 71 68 64 65 64 62 66 71 74 80 89 91 92 94 94 95
79 81 97 98 100 100 98 86 78 83 81 78 86 93 95 89 79 88 97 99 87 94 100 95 92 84 74 73 72 73 67 71 72 71 72 76 79 82 89 94 94 92 93 94
85 92 98 98 94 93 91 95 92 98 93 84 84 92 80 99 99 98 99 86 83 87 86 93 92 87 77 72 72 77 80 85 85 90 84 85 83 88 89 94 94 92 90 95
75 71 90 87 86 87 91 95 93 90 90 96 91 76 80 96 100 96 98 100 97 90 92 92 90 80 79 86 86 86 88 93 90 89 91 90 90 89 91 92 91 90 94 94
65 76 84 90 88 94 92 94 95 89 93 98 100 96 99 97 92 98 93 90 92 93 91 87 78 86 86 86 86 85 87 88 91 92 90 89 93 92 91 92 93 94 93 94
68 87 85 92 87 95 94 92 93 94 97 100 99 99 95 86 83 82 80 92 92 89 87 83 87 89 88 87 83 87 86 87 87 88 88 90 89 89 86 92 94 93 94 94

GFSNW_sfc_rhum_102.txt.gz
RH
67 67 68 67 70 72 82 94 95 83 91 97 99 93 90 55 45 44 48 46 48 44 40 37 63 83 83 72 76 94 57 60 72 47 50 46 51 38 42 63 60 56 63 52
68 69 71 70 70 74 96 96 97 90 87 97 95 77 62 58 63 58 47 48 44 38 38 43 50 75 56 56 70 95 65 78 70 56 52 59 44 43 45 49 49 60 66 51
73 68 68 72 73 73 94 97 96 92 97 98 98 98 87 71 63 68 51 47 40 46 46 37 50 45 48 53 55 65 64 71 52 64 70 64 53 40 52 62 70 59 43 36
70 69 68 69 73 72 93 94 93 89 97 96 89 89 80 84 74 71 67 60 57 51 46 44 44 42 42 34 56 57 64 68 57 51 43 37 44 34 40 76 70 70 56 52
70 67 66 68 70 76 98 95 96 95 94 81 80 82 76 84 88 78 83 72 60 64 69 60 75 70 66 53 53 62 63 68 67 66 48 48 48 39 35 40 57 49 35 30
68 68 68 69 72 81 98 93 91 92 84 86 91 81 67 66 73 71 58 64 75 77 75 80 75 74 69 67 56 65 77 78 78 76 62 54 60 48 36 31 35 42 38 63
68 68 70 75 72 81 97 97 93 98 96 83 77 65 63 63 66 80 64 63 73 58 68 64 60 69 62 60 52 53 68 77 84 92 71 80 46 33 35 58 59 56 58 52
69 72 74 76 76 74 97 97 94 99 99 84 73 66 65 70 70 75 67 58 55 80 76 82 77 76 69 59 56 53 58 78 91 90 93 65 38 49 49 56 70 58 60 53
72 75 72 76 77 75 96 98 96 98 99 88 62 80 75 90 94 87 76 60 74 86 97 96 93 93 69 61 57 48 52 68 83 93 87 90 58 53 47 46 89 59 58 60
75 75 75 73 75 75 94 97 94 98 99 89 74 81 82 67 73 89 88 76 77 81 98 96 96 86 58 90 90 77 76 92 85 97 97 83 55 45 47 64 72 58 55 56
72 72 70 71 75 75 90 96 95 96 97 84 72 64 76 72 79 93 87 85 89 97 97 96 88 94 71 83 88 96 74 85 95 93 95 83 45 51 62 65 61 56 56 62
78 73 72 73 74 75 83 96 83 91 96 92 80 74 72 75 74 82 85 86 96 98 96 90 94 94 93 91 96 100 97 73 84 76 73 54 53 62 65 54 53 63 60 56
72 72 72 72 75 76 81 96 94 96 96 85 92 80 58 56 60 62 91 96 92 100 99 100 100 99 92 97 94 98 95 88 81 76 63 76 77 63 53 47 61 60 65 81
73 74 75 76 77 77 79 97 93 94 98 99 84 63 74 60 57 65 66 72 94 93 98 100 100 96 79 95 88 98 91 89 90 89 81 73 71 65 69 61 61 77 80 84
76 76 77 78 79 79 88 97 95 88 87 97 94 85 69 62 69 68 65 86 94 99 99 99 97 89 93 90 92 99 92 99 99 99 91 90 81 79 63 65 72 78 83 88
82 81 79 80 81 82 97 100 96 92 89 100 99 84 79 70 68 74 77 73 82 91 94 98 93 87 95 99 96 73 70 73 84 96 88 86 65 63 61 69 74 78 83 84
85 86 85 84 85 94 99 98 93 89 94 100 99 93 80 82 72 82 86 80 90 92 95 96 96 88 89 98 98 72 78 79 82 82 81 90 75 73 64 69 74 81 83 85
86 87 85 86 86 86 98 97 92 92 99 100 99 96 95 90 96 92 94 95 96 96 96 96 98 93 95 96 82 72 67 60 65 70 67 69 68 68 72 73 73 81 85 87
90 90 86 94 98 100 94 88 91 96 97 99 99 95 95 95 99 97 98 98 100 98 95 98 97 95 91 91 87 80 78 76 73 68 70 70 80 79 76 80 83 88 88 87
93 96 100 100 99 87 91 99 99 99 99 99 96 93 99 96 99 99 100 98 98 96 93 89 92 96 95 88 85 76 74 74 74 83 88 86 87 84 83 83 81 82 80 86
98 100 99 95 86 96 100 99 98 99 98 92 89 90 99 98 98 99 100 99 98 96 97 91 94 97 93 91 86 76 72 71 74 76 80 81 85 87 88 87 87 88 86 87
89 94 96 97 99 100 98 98 99 92 94 96 99 98 94 100 97 100 100 98 99 98 92 99 97 96 94 85 88 88 89 77 72 74 78 80 79 83 88 90 92 93 94 96
83 89 97 96 100 98 98 97 99 97 97 96 97 98 97 99 98 100 100 99 97 96 99 96 94 92 88 88 82 78 74 82 80 80 79 82 85 87 90 96 97 94 94 95
97 99 98 98 99 95 99 97 98 99 99 99 98 99 92 98 99 99 98 92 96 99 96 95 96 95 93 86 80 86 92 94 91 92 87 89 89 94 95 97 96 95 93 96
93 87 98 97 98 99 99 99 97 96 97 99 98 97 94 92 93 97 93 90 97 95 99 98 96 90 89 97 96 97 97 98 98 99 99 98 96 97 97 96 96 95 95 95
84 89 94 98 96 98 97 98 98 96 98 99 97 98 98 96 92 94 95 96 99 98 98 98 95 97 98 99 99 99 99 98 100 99 98 97 98 98 98 96 95 96 95 96
85 98 97 98 98 98 99 98 97 97 100 100 96 95 99 98 94 93 95 98 99 97 96 98 97 97 100 98 98 98 98 99 99 99 98 98 97 93 91 95 96 95 95 95

GFSNW_sfc_rhum_105.txt.gz
RH
67 67 67 68 68 72 84 96 100 81 90 97 98 92 74 70 61 51 59 58 55 89 57 55 76 100 78 75 73 85 77 77 80 54 58 54 56 34 32 59 60 64 61 55
66 68 69 70 71 72 97 93 92 89 91 94 98 86 88 61 65 63 62 58 54 68 54 50 47 49 45 53 72 80 78 89 85 73 66 58 57 46 54 53 59 61 72 68
66 69 70 68 71 74 94 95 95 91 96 96 98 94 84 80 59 66 71 63 54 61 47 45 47 41 38 46 67 66 70 80 93 94 82 64 57 44 62 64 67 73 62 62
69 72 69 68 67 70 93 97 88 90 99 94 93 87 82 76 89 72 74 69 67 73 65 61 64 62 56 46 65 71 78 94 90 74 50 59 66 50 44 68 77 73 57 44
71 72 69 67 68 76 97 98 99 98 96 87 82 75 73 76 64 81 80 92 72 72 76 76 87 81 77 72 64 66 72 95 94 84 60 51 64 60 45 46 65 73 73 38
71 74 70 69 68 81 98 96 84 97 83 87 92 81 73 70 69 66 63 68 76 78 68 75 70 72 71 73 78 67 72 90 93 78 65 62 63 60 47 50 54 64 79 63
71 73 72 73 70 80 96 96 94 100 96 92 78 72 71 76 71 81 67 68 77 61 65 74 69 75 80 84 70 65 64 76 88 88 73 66 53 43 51 68 60 51 62 68
74 74 76 75 76 76 97 98 97 99 99 79 77 74 67 74 75 81 76 67 60 78 84 80 78 77 69 63 60 62 62 78 90 87 81 59 52 59 54 71 76 65 60 69
72 74 77 73 73 75 96 98 96 99 98 90 68 81 79 84 93 86 78 68 69 88 94 95 96 96 72 70 69 56 61 69 83 93 89 88 54 50 53 60 89 64 69 73
68 71 75 76 72 75 94 98 93 95 98 90 84 86 80 76 85 92 88 82 87 86 98 98 98 86 68 88 91 93 85 93 84 97 95 80 59 50 51 70 79 66 63 63
68 72 75 76 74 76 92 96 96 95 95 89 76 73 83 79 77 93 86 87 88 95 97 97 97 97 82 87 89 93 94 86 96 94 94 86 49 57 63 67 60 58 61 65
69 78 77 76 71 76 82 97 93 91 97 91 82 77 73 70 68 87 90 88 95 95 98 93 98 97 96 90 92 100 98 88 78 74 75 57 71 73 73 62 56 64 61 66
70 76 76 76 71 75 80 95 97 98 100 94 85 81 63 67 68 68 93 92 88 98 98 99 98 99 97 98 96 98 100 96 96 71 62 79 79 74 74 69 67 80 84 88
72 78 75 73 72 72 77 98 98 96 99 99 85 65 79 66 63 68 65 63 95 94 94 99 98 99 80 95 90 98 98 99 96 90 88 82 81 87 77 75 78 81 84 87
72 72 73 73 74 74 88 99 97 90 95 98 96 79 60 66 70 70 69 77 94 99 98 98 96 94 92 92 96 100 93 100 99 96 94 94 90 83 76 78 82 81 81 88
70 72 73 74 77 79 98 100 97 94 92 100 98 83 80 81 76 79 84 84 94 92 93 98 95 85 97 98 96 77 71 89 96 99 92 88 82 81 71 79 80 82 86 87
73 74 76 80 82 92 99 96 94 89 93 100 99 95 78 80 79 89 92 86 92 91 90 96 96 91 85 98 93 82 90 88 91 89 96 98 96 99 85 77 78 82 84 86
78 79 82 84 81 84 97 92 90 95 99 100 99 97 94 89 98 96 94 97 96 96 90 98 97 93 94 96 82 77 90 70 84 74 70 84 75 70 75 75 81 85 89 88
77 80 83 96 98 100 97 83 91 98 98 99 99 97 95 93 99 98 98 97 99 96 99 97 95 96 97 97 88 88 92 84 81 72 89 74 81 80 79 80 85 91 88 89
88 95 100 100 98 84 91 99 100 100 100 98 96 92 98 96 99 99 100 99 96 97 94 92 99 91 90 89 91 89 85 77 76 85 89 86 86 84 81 82 83 85 82 84
99 100 99 95 87 96 100 99 99 99 96 93 85 91 97 97 98 99 100 97 96 86 93 88 95 96 92 90 88 87 84 73 75 78 77 81 82 82 83 85 85 86 87 90
92 92 95 98 99 100 98 98 99 94 89 94 92 91 94 99 98 100 99 98 99 94 93 98 97 97 95 89 88 84 85 81 81 78 82 75 76 83 86 88 91 93 93 96
86 93 99 97 99 98 98 97 98 90 96 98 99 99 97 100 99 100 99 99 98 98 98 96 94 91 87 84 77 80 84 82 78 75 77 79 83 86 90 96 96 96 96 95
98 97 98 96 99 93 96 98 96 98 99 99 100 99 98 99 99 98 97 95 99 98 96 98 99 94 93 87 82 90 97 94 89 94 87 88 89 95 95 97 97 96 96 97
95 86 98 99 97 98 99 99 96 96 98 99 99 98 96 98 93 98 96 95 98 96 99 99 97 90 87 96 92 95 96 97 99 98 97 98 96 96 97 96 96 95 95 95
85 89 95 98 96 98 98 98 98 96 97 99 100 99 96 95 93 92 98 97 97 98 98 98 92 94 95 97 98 99 99 99 99 97 97 97 98 98 99 96 96 96 96 96
83 98 98 99 98 98 98 98 97 97 98 99 96 97 97 97 94 93 94 98 98 99 98 98 94 98 99 99 97 98 98 99 98 98 98 100 96 94 93 97 97 96 96 96

GFSNW_sfc_rhum_108.txt.gz
RH
64 66 64 66 70 73 85 97 96 78 89 96 94 89 79 66 71 59 64 72 67 71 85 95 91 97 77 51 69 98 90 87 74 62 72 68 52 43 37 58 54 66 60 52
66 66 66 68 69 73 96 94 93 88 89 93 97 89 80 75 73 68 71 75 62 61 73 86 58 77 49 45 65 99 97 88 88 82 78 73 64 55 62 40 63 64 75 62
69 66 67 70 68 78 95 95 98 89 99 96 94 99 91 80 64 76 68 79 71 78 71 53 59 59 51 61 61 70 83 98 92 93 86 71 95 58 52 56 57 51 67 85
68 67 67 69 69 76 93 98 93 87 98 96 93 85 84 80 80 74 80 78 74 89 90 70 71 67 64 55 61 67 77 97 87 67 60 62 72 94 66 78 74 58 73 61
67 68 69 75 71 75 96 99 99 88 89 86 90 78 70 77 68 72 83 79 74 74 88 78 82 69 72 73 67 66 75 96 89 76 51 48 77 81 93 60 73 84 77 78
70 69 70 75 70 79 98 98 94 93 82 89 92 82 76 76 78 66 66 71 82 84 74 74 74 71 68 68 75 78 73 96 95 74 72 69 85 76 64 62 56 70 72 76
69 70 74 78 73 80 97 97 95 98 94 88 78 74 74 78 73 78 68 74 83 66 62 78 75 85 84 83 80 79 80 77 92 86 83 60 50 58 55 64 65 59 65 73
69 71 74 78 73 76 96 97 97 98 98 80 71 73 77 74 73 84 80 73 65 73 94 88 75 74 70 66 73 71 76 78 90 92 80 58 61 56 59 68 77 70 71 81
71 73 75 77 74 74 95 98 96 99 99 87 72 80 78 86 85 86 76 68 73 88 96 95 96 92 76 71 67 63 69 74 85 89 79 83 54 51 52 70 94 78 75 72
72 70 77 76 75 74 95 96 92 94 99 86 85 91 83 76 85 92 86 86 85 85 97 98 99 86 72 85 91 96 92 92 86 94 92 71 56 52 57 82 76 74 66 80
71 69 68 72 74 76 93 96 94 95 96 85 81 78 88 85 84 93 80 85 85 93 95 98 94 97 90 94 90 94 95 95 96 92 95 83 50 57 72 74 81 74 65 72
72 67 71 73 75 75 84 97 94 89 100 90 82 77 67 65 63 81 92 86 95 94 96 93 94 95 98 84 97 97 99 95 91 80 74 58 72 78 74 74 63 81 67 91
70 66 69 74 72 75 84 96 98 99 100 89 96 83 69 75 72 67 93 93 84 96 94 99 96 99 98 96 89 99 99 97 98 93 76 90 96 90 83 87 92 92 87 89
69 68 74 76 76 76 84 94 97 96 99 99 88 68 79 69 71 74 73 77 94 90 90 96 98 96 83 96 80 92 94 99 99 93 90 92 90 90 92 84 80 82 84 84
67 68 76 72 73 74 88 98 98 93 97 97 92 84 60 62 75 81 78 81 91 96 98 99 94 92 95 92 97 99 97 100 100 100 98 97 96 85 86 86 84 81 81 89
68 69 74 75 78 76 95 100 98 94 91 100 99 84 81 84 84 84 89 85 94 96 98 96 91 82 93 97 94 96 96 100 99 100 96 96 96 95 79 84 83 83 84 84
68 68 70 72 76 95 98 92 94 88 91 100 99 96 80 85 89 94 95 91 95 94 94 95 93 88 82 96 91 88 94 97 98 96 99 100 98 99 99 96 82 82 83 86
69 70 72 76 77 81 94 89 88 95 98 100 100 95 91 88 98 96 96 98 96 99 95 93 89 94 95 96 86 84 83 83 93 96 97 99 98 93 84 80 80 85 87 86
69 72 75 89 97 100 96 78 85 96 99 99 99 98 93 90 98 98 99 96 99 95 99 98 96 94 96 92 89 88 85 89 84 73 74 73 79 79 78 79 84 85 85 83
71 92 100 99 99 85 88 98 100 100 100 100 99 93 95 95 94 98 99 99 98 93 87 98 99 98 91 88 88 87 82 78 80 84 85 84 81 80 79 83 84 87 88 86
99 100 100 97 87 97 100 99 99 99 96 98 96 92 95 95 99 99 99 99 98 98 93 90 96 96 92 92 92 91 85 81 79 77 77 76 77 81 81 82 83 84 84 89
95 95 94 99 99 100 99 98 99 88 85 95 90 89 93 98 97 99 99 98 98 90 95 98 99 97 94 87 85 81 83 77 71 71 76 77 73 79 83 88 90 93 93 95
95 99 100 98 100 98 97 97 99 91 96 98 99 99 98 99 99 99 99 98 97 98 98 98 96 92 90 88 82 78 78 76 75 77 74 76 82 85 90 96 96 96 96 97
99 98 98 95 99 96 95 96 97 97 98 98 99 99 99 99 99 98 99 98 97 98 97 95 97 96 92 88 80 83 93 93 90 95 88 90 92 96 96 96 96 96 95 97
97 88 98 97 96 99 100 99 98 97 98 99 99 99 98 98 98 98 97 96 98 97 98 98 97 92 89 95 91 95 97 98 98 98 97 97 96 96 98 97 96 95 96 96
83 89 96 97 96 98 98 98 98 95 96 98 100 99 98 98 96 92 95 97 97 99 98 97 90 94 93 95 97 98 98 97 98 97 96 97 97 98 98 96 96 96 96 96
83 99 97 100 98 99 99 98 96 95 97 99 98 98 98 96 96 93 93 98 98 99 99 98 98 98 97 95 95 97 96 97 97 98 97 99 97 94 93 97 98 97 97 98

GFSNW_sfc_rhum_114.txt.gz
RH
67 64 68 67 70 75 64 63 83 70 71 61 53 46 52 56 47 44 50 53 54 59 59 61 56 87 52 35 37 59 88 98 73 46 44 32 14 22 22 27 24 21 20 18
64 68 71 68 72 75 62 58 51 66 68 82 53 53 56 51 46 42 53 54 54 55 54 67 43 42 34 33 46 72 70 86 59 50 51 71 68 18 22 25 20 25 33 21
68 69 71 70 73 75 56 69 88 59 88 66 56 80 60 51 38 42 48 50 52 49 49 42 48 45 38 40 42 58 57 99 99 92 95 63 89 88 46 23 32 27 21 19
69 71 71 71 74 76 55 77 71 59 90 86 58 59 53 52 51 40 38 50 47 56 64 50 40 42 44 38 42 44 53 76 84 68 57 37 55 73 79 57 28 30 21 17
68 72 71 72 75 74 66 93 61 59 51 60 65 64 48 45 46 48 44 52 45 44 55 53 57 50 51 53 45 53 52 69 58 56 58 40 41 58 50 54 54 30 26 20
69 73 75 75 76 70 65 68 62 58 60 56 58 47 40 47 49 40 45 50 47 49 46 47 47 49 52 52 62 73 69 59 55 51 39 52 57 58 46 42 41 44 48 32
75 71 77 77 77 70 59 52 58 70 60 42 44 46 46 48 45 51 43 43 47 38 39 44 43 40 44 50 50 58 72 62 52 57 44 80 45 42 39 42 41 42 38 46
74 74 77 79 78 74 55 61 62 61 68 38 43 49 49 43 44 47 45 39 41 44 56 60 50 39 38 36 41 44 59 63 60 62 53 33 54 41 54 58 53 56 46 60
74 79 79 77 78 78 59 58 64 63 69 44 39 44 43 46 42 45 46 41 42 59 59 72 70 58 48 43 41 46 53 61 66 52 59 59 51 34 33 47 89 62 54 63
77 79 79 78 75 79 68 56 68 66 80 42 52 49 46 46 48 48 45 55 47 58 76 74 65 76 49 65 64 58 60 64 68 57 58 39 44 44 40 78 86 74 69 79
79 76 78 77 75 77 78 66 67 69 70 45 54 49 48 43 44 51 47 53 68 62 78 68 59 64 50 68 64 74 80 75 76 62 68 61 45 46 70 66 64 87 79 78
78 75 78 76 76 77 75 72 63 73 94 56 62 56 47 42 41 48 55 55 71 56 63 51 54 66 65 57 80 85 86 98 94 63 50 46 51 73 79 71 76 83 69 64
78 77 78 74 76 76 74 75 83 97 97 78 64 57 47 49 51 44 66 60 52 85 84 92 78 88 61 71 58 91 69 60 95 95 89 94 93 84 73 74 82 85 70 68
78 77 76 76 75 76 76 71 78 79 91 94 50 43 54 43 48 53 52 49 56 65 80 81 72 70 48 64 62 85 89 99 99 89 81 93 92 94 92 88 82 74 62 60
78 78 77 71 70 76 85 81 80 61 68 87 58 50 41 43 49 56 57 60 60 63 87 81 74 47 58 60 73 93 98 100 95 98 98 99 98 98 95 94 97 96 68 69
78 78 73 72 76 78 88 100 74 70 67 86 83 50 52 56 54 59 63 61 67 79 82 76 63 49 63 85 65 94 97 100 100 100 100 99 100 95 97 99 100 100 99 93
77 76 74 75 80 85 79 72 79 69 76 100 87 64 58 61 64 66 75 72 94 83 77 78 63 56 73 68 62 51 77 95 99 99 99 100 98 99 100 99 99 96 70 74
76 75 75 79 78 79 86 90 89 84 86 85 91 74 67 67 83 83 77 85 91 86 73 77 69 58 67 67 62 69 70 91 78 72 71 90 97 93 94 83 88 81 69 69
76 76 78 88 96 100 66 80 86 92 98 91 87 79 85 76 84 80 87 79 95 67 88 72 68 64 70 74 74 73 73 74 70 70 59 56 59 61 63 72 71 70 70 71
76 81 98 100 93 75 82 97 99 100 99 97 91 56 80 73 87 99 100 94 84 92 72 60 84 62 81 77 75 73 71 60 57 65 68 64 61 60 63 67 72 78 72 72
85 99 94 78 82 85 94 100 100 97 97 90 70 60 69 67 84 90 91 95 96 89 70 76 72 79 81 70 70 67 59 55 54 54 56 53 58 61 62 62 66 69 72 78
79 83 92 97 97 100 100 94 88 83 63 70 80 78 73 69 69 88 96 92 91 87 67 89 84 84 75 67 68 62 58 53 53 51 55 56 56 61 66 71 78 83 86 87
85 98 100 100 100 98 92 88 84 84 74 79 83 92 78 78 84 99 100 100 93 74 98 92 83 78 80 74 67 65 54 54 55 54 55 59 68 73 77 84 85 84 85 88
92 97 99 96 95 81 77 69 71 87 84 85 82 84 86 85 100 98 99 97 99 95 92 87 84 86 78 72 73 75 80 80 75 81 74 79 80 84 86 88 86 86 85 89
99 94 88 93 90 90 93 93 89 91 88 84 85 90 82 97 98 99 90 98 88 85 88 90 89 78 74 81 78 78 82 85 85 84 86 88 87 85 88 88 87 85 88 88
92 79 89 90 91 97 96 98 97 83 88 91 94 94 97 94 93 91 86 86 85 90 84 80 73 81 80 82 84 87 85 83 84 84 82 85 87 88 88 86 87 88 87 87
78 91 87 92 93 95 95 94 90 83 97 99 92 97 92 88 88 85 75 92 85 85 85 76 81 82 85 84 83 86 85 86 84 83 83 84 82 78 79 85 86 83 85 84